Location: Gro�bocka
(50.8204°N, 11.9702°E)
Time: 01:54:17
(UTC+00:00)

Cosmos 1689 Rocket - Pass Details

Date: 29 October 2020
Orbit: 360 x 375 km, 97.5° (Epoch: 23 November)

Event Time Altitude Azimuth Distance (km) Brightness Sun altitude
Exits shadow 16:47:34 - 38° (NE) 1,491 4.6 -9.3°
Reaches altitude 10° 16:47:57 10° 43° (NE) 1,358 4.4 -9.4°
Maximum altitude 16:50:14 21° 95° (E) 884 3.3 -9.8°
Drops below altitude 10° 16:52:30 10° 148° (SSE) 1,346 4.6 -10.1°
Sets 16:54:43 0° 165° (SSE) 2,186 5.8 -10.5°
